This demonstration page uses our WeatherBlox Daily Observations layout. Learn more.

Left ArrowRight Arrow

30.21309, -93.2044

Hourly Observations for August 7, 2022

Temp ( °F °C ) Dew Point ( °F °C ) Humidity (%) Winds ( mph kmh ) Pressure ( in mb ) Visibility ( mi km ) Precip ( " mm )
12:15 am 00:15 Clear with Mist and Fog 76 24.5 74 23.3 93 93 E 5 7 30.10 1019 7 11 0.00 0.00
12:35 am 00:35 Clear 76 24.4 74 23.3 94 94 E 5 7 30.10 1019 10 16 0.00 0.00
12:55 am 00:55 Clear 76 24.5 74 23.3 93 93 E 6 9 30.09 1019 10 16 0.00 0.00
1:15 am 01:15 Partly Cloudy 76 24.5 74 23.4 94 94 E 6 9 30.09 1019 10 16 0.00 0.00
1:35 am 01:35 Partly Cloudy 76 24.5 74 23.4 94 94 E 6 9 30.08 1019 10 16 0.00 0.00
1:55 am 01:55 Clear 76 24.6 74 23.5 94 94 ESE 6 9 30.08 1019 10 16 0.00 0.00
2:15 am 02:15 Clear 76 24.7 74 23.6 94 94 ESE 7 11 30.08 1019 10 16 0.00 0.00
2:35 am 02:35 Clear 76 24.6 74 23.5 94 94 ESE 7 11 30.08 1019 10 16 0.00 0.00
2:55 am 02:55 Clear 76 24.4 74 23.4 94 94 ESE 8 13 30.08 1019 10 16 0.00 0.00
3:15 am 03:15 Clear 76 24.4 74 23.4 94 94 E 6 9 30.09 1019 10 16 0.00 0.00
3:35 am 03:35 Clear 76 24.2 74 23.3 95 95 E 6 9 30.08 1019 7 11 0.00 0.00
3:55 am 03:55 Clear 76 24.2 74 23.2 94 94 E 6 9 30.09 1019 10 16 0.00 0.00
4:15 am 04:15 Clear 75 24.1 74 23.2 95 95 E 5 7 30.08 1019 7 11 0.00 0.00
4:35 am 04:35 Clear 76 24.2 74 23.3 95 95 E 5 7 30.09 1019 10 16 0.00 0.00
4:55 am 04:55 Clear 75 23.9 73 23 95 95 E 5 7 30.09 1019 10 16 0.00 0.00
5:15 am 05:15 Clear 75 23.9 73 23 95 95 E 5 7 30.09 1019 10 16 0.00 0.00
5:35 am 05:35 Clear 75 24 74 23.1 95 95 E 5 7 30.10 1019 10 16 0.00 0.00
6:00 am 06:00 Mostly Clear 75 24 73 23 94 94 E 6 9 30.11 1020 10 16 0.00 0.00
6:53 am 06:53 Mostly Sunny 75 24 73 23 94 94 E 5 7 30.13 1020 10 16 0.00 0.00
7:47 am 07:47 Partly Cloudy 79 26 75 24 89 89 ESE 6 9 30.14 1021 10 16 0.00 0.00
8:51 am 08:51 Mostly Sunny 81 27 75 24 84 84 ESE 7 11 30.16 1021 10 16 0.00 0.00
9:55 am 09:55 Partly Cloudy 84 29 75 24 74 74 SE 7 11 30.16 1021 10 16 0.00 0.00
10:53 am 10:53 Partly Cloudy 88 31 75 24 66 66 ESE 7 11 30.16 1021 10 16 0.00 0.00
11:46 am 11:46 Mostly Cloudy 90 32 75 24 63 63 ESE 5 7 30.15 1021 10 16 0.00 0.00
1:46 pm 13:46 Mostly Cloudy 91 33 75 24 59 59 SE 12 19 30.11 1020 10 16 0.00 0.00
2:38 pm 14:38 Mostly Cloudy with Thunderstorms 86 30 73 23 66 66 ESE 9 15 30.10 1019 10 16 0.00 0.00
2:49 pm 14:49 Mostly Cloudy with Thunderstorms 86 30 73 23 66 66 ESE 9 15 30.10 1019 10 16 0.00 0.00
3:47 pm 15:47 Mostly Cloudy with Thunderstorms 81 27 73 23 79 79 VRB 7 11 30.13 1020 5 8 0.00 0.00
4:51 pm 16:51 Partly Cloudy 79 26 72 22 79 79 VRB 7 11 30.09 1019 10 16 0.00 0.00
5:55 pm 17:55 Partly Cloudy 79 26 75 24 89 89 E 6 9 30.10 1019 10 16 0.00 0.00
6:53 pm 18:53 Mostly Sunny 81 27 75 24 84 84 E 6 9 30.08 1019 10 16 0.00 0.00
7:55 pm 19:55 Mostly Sunny 79 26 73 23 84 84 E 6 9 30.07 1018 10 16 0.00 0.00
8:53 pm 20:53 Mostly Clear 75 24 73 23 94 94 Calm 30.07 1018 10 16 0.00 0.00
9:45 pm 21:45 Mostly Clear 75 24 73 23 94 94 Calm 30.08 1019 10 16 0.00 0.00
10:15 pm 22:15 Clear 76 24.4 73 22.9 91 91 E 6 9 30.09 1019 10 16 0.00 0.00
10:35 pm 22:35 Clear 76 24.4 73 22.8 91 91 E 3 6 30.09 1019 10 16 0.00 0.00
10:55 pm 22:55 Clear 76 24.2 73 22.8 92 92 E 5 7 30.08 1019 10 16 0.00 0.00
11:15 pm 23:15 Clear 75 24.1 73 22.7 92 92 Calm 30.09 1019 10 16 0.00 0.00
11:35 pm 23:35 Clear 75 23.9 73 22.6 92 92 Calm 30.08 1019 10 16 0.00 0.00
11:55 pm 23:55 Clear 75 23.8 73 22.6 93 93 Calm 30.09 1019 10 16 0.00 0.00

Powered by AerisWeather